FW7257 Weather Reports


Display with metric or nautical units.
time (UTC)temp
F
wind
direction
speed
MPH
gust
MPH
rain 1hr
in
rain 24hr
in
rain mn
in
humidity
%
barometer
mb
20260506004943 73 217 1.0 3.0 0.00 0.00 0.00 48 1015.1
20260506004436 73 0 0.0 3.0 0.00 0.00 0.00 48 1015.0
20260506003942 73 0 0.0 3.0 0.00 0.00 0.00 48 1015.0
20260506003443 73 236 1.0 3.0 0.00 0.00 0.00 48 1015.0
20260506002935 73 224 1.0 2.0 0.00 0.00 0.00 48 1015.1
20260506002443 74 0 0.0 3.0 0.00 0.00 0.00 48 1015.0
20260506001941 74 233 1.0 3.0 0.00 0.00 0.00 48 1014.9
20260506001441 74 0 0.0 4.0 0.00 0.00 0.00 48 1014.8
20260506000942 75 233 1.0 4.0 0.00 0.00 0.00 48 1014.9
20260506000445 75 242 0.0 2.0 0.00 0.00 0.00 49 1015.0
20260505235942 75 0 0.0 3.0 0.00 0.00 0.00 48 1015.0
20260505235436 76 0 0.0 3.0 0.00 0.00 0.00 48 1014.8
20260505234937 76 354 3.0 2.0 0.00 0.00 0.00 49 1014.8
20260505234440 76 234 1.0 3.0 0.00 0.00 0.00 48 1014.8
20260505233942 76 0 0.0 3.0 0.00 0.00 0.00 48 1014.9
20260505233439 76 0 0.0 3.0 0.00 0.00 0.00 47 1014.7
20260505232942 76 0 0.0 2.0 0.00 0.00 0.00 47 1014.8
20260505232441 76 0 0.0 2.0 0.00 0.00 0.00 47 1014.7
20260505231936 76 0 0.0 3.0 0.00 0.00 0.00 46 1014.9
20260505231439 76 232 1.0 3.0 0.00 0.00 0.00 46 1015.0
20260505230942 76 0 0.0 3.0 0.00 0.00 0.00 46 1015.2
20260505230438 76 258 1.0 4.0 0.00 0.00 0.00 46 1015.1
20260505225939 76 194 1.0 4.0 0.00 0.00 0.00 46 1014.9
20260505225437 76 228 1.0 2.0 0.00 0.00 0.00 48 1014.8
20260505224937 76 0 0.0 2.0 0.00 0.00 0.00 48 1014.8
20260505224439 76 0 0.0 3.0 0.00 0.00 0.00 45 1014.8
20260505223942 76 0 0.0 3.0 0.00 0.00 0.00 45 1014.8
20260505223442 77 252 0.0 4.0 0.00 0.00 0.00 45 1014.8
20260505222941 77 257 0.0 4.0 0.00 0.00 0.00 45 1014.9
20260505222438 77 0 0.0 5.0 0.00 0.00 0.00 44 1014.9
20260505221940 77 228 1.0 5.0 0.00 0.00 0.00 44 1014.8
20260505221440 77 234 1.0 3.0 0.00 0.00 0.00 44 1014.8
20260505220942 77 226 0.0 4.0 0.00 0.00 0.00 43 1014.7
20260505220435 77 195 3.0 8.0 0.00 0.00 0.00 43 1015.2
20260505215940 77 233 1.0 8.0 0.00 0.00 0.00 42 1015.0
20260505215444 77 0 0.0 6.0 0.00 0.00 0.00 42 1014.8
20260505214940 77 221 1.0 8.0 0.00 0.00 0.00 43 1015.0
20260505214437 77 234 1.0 9.0 0.00 0.00 0.00 42 1015.0
20260505213944 78 288 1.0 9.0 0.00 0.00 0.00 41 1015.0
20260505213442 78 43 2.0 8.0 0.00 0.00 0.00 43 1014.9
20260505212942 78 257 3.0 8.0 0.00 0.00 0.00 43 1015.1
20260505212437 78 229 0.0 7.0 0.00 0.00 0.00 42 1015.0
20260505211935 78 223 3.0 5.0 0.00 0.00 0.00 42 1015.1
20260505211440 78 184 0.0 5.0 0.00 0.00 0.00 43 1015.1
20260505210942 78 228 1.0 5.0 0.00 0.00 0.00 44 1015.1
20260505210437 78 235 2.0 5.0 0.00 0.00 0.00 43 1015.1
20260505205939 78 308 1.0 5.0 0.00 0.00 0.00 43 1015.2
20260505205442 78 206 1.0 5.0 0.00 0.00 0.00 43 1015.3
20260505204937 78 241 1.0 4.0 0.00 0.00 0.00 42 1015.2
20260505204440 78 200 1.0 4.0 0.00 0.00 0.00 43 1015.4
20260505203941 78 0 0.0 8.0 0.00 0.00 0.00 43 1015.4
20260505203442 78 226 2.0 8.0 0.00 0.00 0.00 43 1015.3
20260505202937 79 340 3.0 8.0 0.00 0.00 0.00 41 1015.5
20260505202442 79 204 1.0 10.0 0.00 0.00 0.00 42 1015.6
20260505201939 78 248 4.0 10.0 0.00 0.00 0.00 41 1015.7
20260505201437 79 235 2.0 10.0 0.00 0.00 0.00 41 1015.8
20260505200942 79 56 0.0 5.0 0.00 0.00 0.00 43 1015.8
20260505200439 79 82 3.0 5.0 0.00 0.00 0.00 42 1016.0
20260505195939 79 235 0.0 6.0 0.00 0.00 0.00 40 1015.9
20260505195436 79 0 0.0 6.0 0.00 0.00 0.00 41 1016.1
20260505194941 79 224 1.0 6.0 0.00 0.00 0.00 42 1016.0
20260505194437 79 221 1.0 6.0 0.00 0.00 0.00 44 1016.1
20260505193938 79 239 1.0 4.0 0.00 0.00 0.00 44 1016.1
20260505193435 79 226 0.0 4.0 0.00 0.00 0.00 42 1016.2
20260505192943 79 176 1.0 4.0 0.00 0.00 0.00 43 1016.1
20260505192440 78 195 1.0 5.0 0.00 0.00 0.00 44 1016.2
20260505191938 78 211 1.0 5.0 0.00 0.00 0.00 42 1016.2
20260505191441 79 72 3.0 5.0 0.00 0.00 0.00 42 1016.2
20260505190941 79 217 1.0 6.0 0.00 0.00 0.00 40 1016.4
20260505190439 79 164 1.0 6.0 0.00 0.00 0.00 42 1016.3
20260505185940 79 345 4.0 4.0 0.00 0.00 0.00 41 1016.4
20260505185439 80 197 0.0 4.0 0.00 0.00 0.00 43 1016.5
20260505184942 79 181 1.0 4.0 0.00 0.00 0.00 42 1016.6
20260505184438 79 217 1.0 8.0 0.00 0.00 0.00 44 1016.6
20260505183939 79 210 1.0 8.0 0.00 0.00 0.00 44 1016.7
20260505183438 79 17 8.0 7.0 0.00 0.00 0.00 44 1016.8
20260505182942 80 241 2.0 6.0 0.00 0.00 0.00 42 1016.9
20260505182441 80 175 0.0 3.0 0.00 0.00 0.00 44 1016.9
20260505181938 80 169 0.0 3.0 0.00 0.00 0.00 43 1016.9
20260505181439 80 179 0.0 5.0 0.00 0.00 0.00 45 1017.0
20260505180939 79 0 0.0 7.0 0.00 0.00 0.00 45 1017.1
20260505180440 78 223 3.0 7.0 0.00 0.00 0.00 44 1017.3
20260505175937 78 323 3.0 6.0 0.00 0.00 0.00 44 1017.1
20260505175437 79 196 1.0 5.0 0.00 0.00 0.00 44 1017.2
20260505174940 79 236 0.0 6.0 0.00 0.00 0.00 45 1017.5
20260505174438 79 200 3.0 7.0 0.00 0.00 0.00 46 1017.5
20260505173939 78 195 1.0 7.0 0.00 0.00 0.00 46 1017.4
20260505173439 78 233 1.0 7.0 0.00 0.00 0.00 44 1017.3
20260505172939 78 360 5.0 7.0 0.00 0.00 0.00 44 1017.5
20260505172437 79 281 3.0 6.0 0.00 0.00 0.00 43 1017.5
20260505171934 79 23 2.0 5.0 0.00 0.00 0.00 43 1017.7
20260505171435 79 212 2.0 5.0 0.00 0.00 0.00 46 1017.6
20260505170937 78 227 1.0 5.0 0.00 0.00 0.00 42 1017.5
20260505170436 78 98 1.0 8.0 0.00 0.00 0.00 43 1017.5
20260505165934 78 162 2.0 9.0 0.00 0.00 0.00 44 1017.4
20260505165435 78 240 5.0 9.0 0.00 0.00 0.00 42 1017.4
20260505164936 78 292 3.0 9.0 0.00 0.00 0.00 42 1017.3
20260505164435 78 153 2.0 9.0 0.00 0.00 0.00 43 1017.5
20260505163936 78 241 3.0 6.0 0.00 0.00 0.00 43 1017.5
20260505163433 78 243 1.0 7.0 0.00 0.00 0.00 48 1017.6
20260505162946 78 36 1.0 8.0 0.00 0.00 0.00 45 1017.6
20260505162445 78 169 1.0 8.0 0.00 0.00 0.00 45 1017.7
20260505161935 78 255 3.0 8.0 0.00 0.00 0.00 43 1017.7
20260505161437 78 229 3.0 7.0 0.00 0.00 0.00 46 1017.8
20260505160937 78 241 1.0 10.0 0.00 0.00 0.00 44 1017.9
20260505160435 78 186 1.0 10.0 0.00 0.00 0.00 44 1017.8
20260505153034 78 200 1.0 4.0 0.00 0.00 0.00 44 1017.8
20260505152536 78 212 1.0 4.0 0.00 0.00 0.00 46 1017.7
20260505151939 77 0 0.0 4.0 0.00 0.00 0.00 47 1017.7
20260505151442 77 250 2.0 4.0 0.00 0.00 0.00 46 1017.8
20260505150944 77 259 3.0 2.0 0.00 0.00 0.00 47 1017.9
20260505150442 76 202 1.0 2.0 0.00 0.00 0.00 47 1017.9
20260505140441 71 184 0.0 1.0 0.00 0.00 0.00 58 1017.8
20260505124942 63 0 0.0 0.0 0.00 0.00 0.00 66 1017.3
20260505124442 63 0 0.0 0.0 0.00 0.00 0.00 67 1017.2
20260505123941 62 0 0.0 0.0 0.00 0.00 0.00 67 1017.3
20260505123437 62 0 0.0 0.0 0.00 0.00 0.00 67 1017.3
20260505122939 62 0 0.0 0.0 0.00 0.00 0.00 67 1017.3
20260505122438 62 0 0.0 0.0 0.00 0.00 0.00 65 1017.2
20260505121936 61 0 0.0 0.0 0.00 0.00 0.00 67 1017.2
20260505121437 61 0 0.0 0.0 0.00 0.00 0.00 67 1017.3
20260505120938 61 0 0.0 0.0 0.00 0.00 0.00 68 1017.3
20260505120437 59 0 0.0 0.0 0.00 0.00 0.00 70 1017.4
20260505115940 58 0 0.0 0.0 0.00 0.00 0.00 71 1017.2
20260505115436 58 0 0.0 0.0 0.00 0.00 0.00 72 1017.1
20260505114939 57 0 0.0 0.0 0.00 0.00 0.00 74 1017.0
20260505114441 57 0 0.0 0.0 0.00 0.00 0.00 73 1016.9
20260505113936 56 0 0.0 0.0 0.00 0.00 0.00 74 1017.0
20260505113440 55 0 0.0 0.0 0.00 0.00 0.00 76 1016.8
20260505112938 53 0 0.0 0.0 0.00 0.00 0.00 79 1016.7
20260505112437 52 0 0.0 0.0 0.00 0.00 0.00 81 1016.7
20260505111942 51 0 0.0 0.0 0.00 0.00 0.00 81 1016.5
20260505111439 50 0 0.0 0.0 0.00 0.00 0.00 81 1016.5
20260505110939 50 0 0.0 0.0 0.00 0.00 0.00 82 1016.4
20260505110443 50 0 0.0 0.0 0.00 0.00 0.00 82 1016.4
20260505101939 50 0 0.0 0.0 0.00 0.00 0.00 82 1016.2
20260505101441 50 0 0.0 0.0 0.00 0.00 0.00 81 1016.4
20260505100937 51 0 0.0 0.0 0.00 0.00 0.00 81 1016.5
20260505100437 51 0 0.0 0.0 0.00 0.00 0.00 81 1016.5
20260505095939 51 0 0.0 0.0 0.00 0.00 0.00 82 1016.5
20260505095440 51 0 0.0 0.0 0.00 0.00 0.00 82 1016.4
20260505094936 51 0 0.0 0.0 0.00 0.00 0.00 81 1016.5
20260505094441 51 0 0.0 0.0 0.00 0.00 0.00 82 1016.4
20260505093942 51 0 0.0 0.0 0.00 0.00 0.00 82 1016.3
20260505093439 51 0 0.0 0.0 0.00 0.00 0.00 81 1016.2
20260505092939 51 0 0.0 0.0 0.00 0.00 0.00 81 1016.0
20260505092439 51 0 0.0 0.0 0.00 0.00 0.00 81 1016.1
20260505091940 52 0 0.0 0.0 0.00 0.00 0.00 81 1016.1
20260505091442 52 0 0.0 0.0 0.00 0.00 0.00 81 1016.3
20260505090937 52 0 0.0 0.0 0.00 0.00 0.00 80 1016.4
20260505090437 51 0 0.0 0.0 0.00 0.00 0.00 79 1016.6
20260505085938 52 0 0.0 0.0 0.00 0.00 0.00 79 1016.6
20260505085438 52 0 0.0 0.0 0.00 0.00 0.00 78 1016.4
20260505084938 52 0 0.0 0.0 0.00 0.00 0.00 78 1016.4
20260505084439 52 0 0.0 0.0 0.00 0.00 0.00 79 1016.4
20260505083938 52 0 0.0 0.0 0.00 0.00 0.00 79 1016.3
20260505083437 52 0 0.0 0.0 0.00 0.00 0.00 79 1016.3
20260505082938 52 0 0.0 0.0 0.00 0.00 0.00 78 1016.3
20260505082438 52 0 0.0 0.0 0.00 0.00 0.00 78 1016.3
20260505081938 52 0 0.0 0.0 0.00 0.00 0.00 78 1016.4
20260505081435 53 0 0.0 0.0 0.00 0.00 0.00 79 1016.3
20260505080940 53 0 0.0 0.0 0.00 0.00 0.00 79 1016.3
20260505080438 53 0 0.0 0.0 0.00 0.00 0.00 78 1016.3
20260505075939 53 0 0.0 0.0 0.00 0.00 0.00 77 1016.3
20260505075441 53 0 0.0 0.0 0.00 0.00 0.00 77 1016.3
20260505074938 53 0 0.0 0.0 0.00 0.00 0.00 76 1016.3
20260505074439 54 0 0.0 0.0 0.00 0.00 0.00 75 1016.4
20260505073936 54 0 0.0 0.0 0.00 0.00 0.00 75 1016.4
20260505073436 54 0 0.0 0.0 0.00 0.00 0.00 75 1016.3
20260505072942 54 0 0.0 0.0 0.00 0.00 0.00 73 1016.3
20260505072435 54 0 0.0 0.0 0.00 0.00 0.00 73 1016.3
20260505071935 54 0 0.0 0.0 0.00 0.00 0.00 72 1016.3
20260505071439 54 0 0.0 0.0 0.00 0.00 0.00 72 1016.3
20260505070937 55 0 0.0 0.0 0.00 0.00 0.00 71 1016.4
20260505070439 55 0 0.0 0.0 0.00 0.00 0.00 71 1016.3
20260505065938 55 0 0.0 0.0 0.00 0.00 0.00 71 1016.4
20260505065442 55 0 0.0 0.0 0.00 0.00 0.00 71 1016.4
20260505064940 55 0 0.0 0.0 0.00 0.00 0.00 70 1016.3
20260505064442 55 0 0.0 0.0 0.00 0.00 0.00 70 1016.3
20260505063935 56 0 0.0 0.0 0.00 0.00 0.00 70 1016.3
20260505063441 55 0 0.0 0.0 0.00 0.00 0.00 69 1016.3
20260505062937 55 0 0.0 0.0 0.00 0.00 0.00 69 1016.4
20260505062438 55 0 0.0 0.0 0.00 0.00 0.00 70 1016.6
20260505061938 56 0 0.0 0.0 0.00 0.00 0.00 70 1016.4
20260505061437 56 0 0.0 0.0 0.00 0.00 0.00 70 1016.6
20260505060939 56 0 0.0 0.0 0.00 0.00 0.00 69 1016.7
20260505060436 56 0 0.0 0.0 0.00 0.00 0.00 69 1016.6
20260505055942 57 0 0.0 0.0 0.00 0.00 0.00 69 1016.7
20260505055440 57 0 0.0 0.0 0.00 0.00 0.00 70 1016.7
20260505054936 57 0 0.0 0.0 0.00 0.00 0.00 70 1016.7
20260505054435 57 0 0.0 0.0 0.00 0.00 0.00 68 1016.8
20260505053937 57 0 0.0 0.0 0.00 0.00 0.00 66 1016.8
20260505053440 57 0 0.0 0.0 0.00 0.00 0.00 66 1016.9
20260505052936 58 0 0.0 0.0 0.00 0.00 0.00 65 1016.8
20260505052438 58 0 0.0 0.0 0.00 0.00 0.00 65 1016.7
20260505051943 58 0 0.0 0.0 0.00 0.00 0.00 66 1016.9
20260505051436 58 0 0.0 0.0 0.00 0.00 0.00 66 1016.8
20260505050938 58 0 0.0 0.0 0.00 0.00 0.00 67 1016.6
20260505050437 58 0 0.0 0.0 0.00 0.00 0.00 68 1016.6
20260505041440 60 0 0.0 0.0 0.00 0.00 0.00 64 1016.6
20260505040938 61 0 0.0 0.0 0.00 0.00 0.00 64 1016.7
20260505040435 61 0 0.0 0.0 0.00 0.00 0.00 62 1016.6
20260505035945 61 0 0.0 1.0 0.00 0.00 0.00 62 1016.7
20260505035441 62 0 0.0 1.0 0.00 0.00 0.00 61 1016.8
20260505034938 62 0 0.0 1.0 0.00 0.00 0.00 61 1016.8
20260505034440 62 0 0.0 1.0 0.00 0.00 0.00 62 1016.8
20260505033938 62 0 0.0 1.0 0.00 0.00 0.00 61 1016.7
20260505033437 62 0 0.0 1.0 0.00 0.00 0.00 61 1016.9
20260505032940 62 0 0.0 1.0 0.00 0.00 0.00 61 1016.9
20260505032440 62 0 0.0 1.0 0.00 0.00 0.00 62 1017.0
20260505031937 62 0 0.0 1.0 0.00 0.00 0.00 62 1016.8
20260505031435 62 0 0.0 1.0 0.00 0.00 0.00 62 1016.8
20260505030941 62 0 0.0 1.0 0.00 0.00 0.00 62 1016.8
20260505030436 62 0 0.0 2.0 0.00 0.00 0.00 61 1016.9
20260505025936 62 248 0.0 3.0 0.00 0.00 0.00 61 1016.8
20260505025438 62 0 0.0 3.0 0.00 0.00 0.00 62 1016.8
20260505024939 62 0 0.0 0.0 0.00 0.00 0.00 61 1016.9
20260505024436 62 0 0.0 0.0 0.00 0.00 0.00 60 1016.8
20260505023939 62 0 0.0 0.0 0.00 0.00 0.00 60 1016.8
20260505023436 63 0 0.0 0.0 0.00 0.00 0.00 59 1016.7
20260505022941 63 0 0.0 0.0 0.00 0.00 0.00 59 1016.8
20260505022442 63 0 0.0 0.0 0.00 0.00 0.00 59 1016.8
20260505021936 63 0 0.0 0.0 0.00 0.00 0.00 58 1016.7
20260505021438 63 0 0.0 0.0 0.00 0.00 0.00 57 1016.7
20260505020942 64 0 0.0 0.0 0.00 0.00 0.00 57 1016.6
20260505020437 64 0 0.0 0.0 0.00 0.00 0.00 57 1016.4
20260505015939 64 0 0.0 0.0 0.00 0.00 0.00 56 1016.6
20260505015441 64 0 0.0 0.0 0.00 0.00 0.00 56 1016.5
20260505014938 64 0 0.0 0.0 0.00 0.00 0.00 56 1016.4
20260505014439 65 0 0.0 0.0 0.00 0.00 0.00 55 1016.4
20260505013937 65 0 0.0 0.0 0.00 0.00 0.00 55 1016.3
20260505013436 65 0 0.0 0.0 0.00 0.00 0.00 55 1016.3
20260505012944 65 0 0.0 0.0 0.00 0.00 0.00 54 1016.2
20260505012444 66 0 0.0 0.0 0.00 0.00 0.00 54 1016.2
20260505011943 66 0 0.0 0.0 0.00 0.00 0.00 53 1016.2
20260505011439 66 0 0.0 0.0 0.00 0.00 0.00 53 1016.3
20260505010940 67 0 0.0 0.0 0.00 0.00 0.00 52 1016.1
20260505010443 67 0 0.0 0.0 0.00 0.00 0.00 51 1016.0
20260505005940 68 0 0.0 0.0 0.00 0.00 0.00 50 1016.2
20260505005437 68 0 0.0 1.0 0.00 0.00 0.00 49 1016.2